[[{"header":{"parameterUnit":"m.s-1","parameterCategory":2,"la1":30.2991,"la2":30.254,"lo1":-89.0895,"lo2":-89.0444,"dy":0.0017,"dx":0.0017,"nx":28,"ny":28,"refTime":"2025-04-22T09:00:00:Z","depth":"0","parameterNumber":2,"parameterNumberName":"U-component_of_CURRENTS"},"data":[0,0,0,0,0,0,0,0,0,0,0,0,0,0,0,0,0,0,0,0,0,0,0,0,0,0,0,0,0,0,0,0,0,0,0,0,0,0,0,0,0,0,0,0,0,0,0,0,0,0,0,0,0,0,0,0,0,0,0.2216,0.2216,0,0.2248,0.2248,0.2249,0.2229,0.2228,0.2228,0.2227,0.2194,0.2193,0.2193,0,0,0,0,0,0,0,0,0,0,0,0,0,0.2152,0.2153,0.2216,0.2216,0.2217,0.2248,0.2248,0.2249,0.2229,0.2228,0.2227,0.2227,0.2194,0.2193,0.2193,0,0,0,0,0,0,0,0,0,0,0,0,0,0.218,0.2153,0.2216,0.2212,0.2212,0.2248,0.2248,0.2249,0.223,0.2228,0.2227,0.2226,0.2194,0.2193,0.2193,0.2216,0,0,0.2193,0.2193,0,0,0,0,0,0,0,0,0.2178,0.2182,0.2212,0.2212,0.2212,0.2235,0.2214,0.2235,0.223,0.2221,0.2227,0.2225,0.2203,0.2202,0.221,0.2215,0.2213,0.2193,0.2193,0.2192,0.2192,0,0,0,0,0,0,0,0.2176,0.2181,0.2227,0.2213,0.2213,0.2214,0.2216,0.2218,0.2216,0.2222,0.2221,0.2227,0.2202,0.221,0.2209,0.2213,0.2193,0.2192,0.2192,0.2192,0.2256,0.2258,0,0,0,0,0,0,0.2176,0.2179,0.2226,0.2228,0.2194,0.2216,0.2219,0.2228,0.2218,0.2216,0.2228,0.2226,0.2211,0.2209,0.2207,0.2243,0.2192,0.2192,0.2192,0.2254,0.2257,0.2259,0,0,0,0,0,0,0.2175,0.218,0.2225,0.2205,0.2211,0.2218,0.2229,0.2229,0.2239,0.2223,0.222,0.2238,0.221,0.2208,0.2218,0.2241,0.2192,0.2192,0.2252,0.2255,0.2258,0.2309,0,0,0,0,0,0,0.2173,0.2179,0.2187,0.2205,0.2212,0.2251,0.223,0.223,0.2245,0.2243,0.2231,0.2226,0.2209,0.2219,0.2218,0.224,0.2192,0.225,0.2254,0.2257,0.2305,0.2313,0.232,0,0,0,0,0,0.217,0.2187,0.2188,0.2193,0.2222,0.2253,0.2257,0.2256,0.2247,0.2259,0.2252,0.2227,0.224,0.222,0.2219,0.2241,0.2248,0.2253,0.2257,0.2302,0.2311,0.232,0,0,0,0,0,0,0.2163,0.2187,0.2188,0.2211,0.2232,0.225,0.2263,0.2265,0.2272,0.2267,0.2247,0.2243,0.2263,0.2252,0.223,0.2273,0.2242,0.2246,0.2277,0.2286,0.2293,0.2273,0.2192,0,0,0,0,0,0.2167,0.2185,0.2208,0.2227,0.2239,0.2253,0.2266,0.227,0.2279,0.2281,0.2274,0.2273,0.2282,0.2281,0.2285,0.2306,0.2293,0.2323,0.2331,0.2337,0.2322,0.2337,0.2344,0.2272,0.2272,0.2272,0,0,0.2167,0.2186,0.2194,0.2227,0.2242,0.226,0.2257,0.2284,0.2295,0.2277,0.2289,0.2298,0.2295,0.2319,0.2327,0.2309,0.2355,0.2342,0.2348,0.2329,0.2342,0.2349,0.2355,0.2275,0.2274,0.2274,0,0,0.2172,0.2198,0.2206,0.2229,0.2259,0.2275,0.2285,0.231,0.2316,0.2342,0.2332,0.2353,0.2365,0.2367,0.2369,0.2423,0.2397,0.2434,0.2451,0.2467,0.2472,0.2476,0.2481,0.2486,0.2436,0.2436,0.2436,0,0.2164,0.2177,0.2215,0.2231,0.2242,0.2281,0.2287,0.2315,0.2339,0.2343,0.235,0.238,0.2385,0.2404,0.243,0.2437,0.2438,0.2413,0.2474,0.2478,0.2482,0.2486,0.249,0.2439,0.2438,0.2438,0.2438,0,0.2169,0.2181,0.2194,0.2221,0.225,0.2265,0.2307,0.2334,0.2355,0.2372,0.2404,0.2426,0.2433,0.246,0.2462,0.2496,0.2488,0.2483,0.2445,0.2492,0.2494,0.2497,0.2443,0.2442,0.2441,0.244,0,0,0.212,0.2177,0.2175,0.2179,0.2237,0.2255,0.2297,0.2327,0.2341,0.239,0.2401,0.2451,0.2464,0.2468,0.2484,0.2513,0.2559,0.2514,0.2514,0.2507,0.259,0.2608,0.2612,0.2568,0.2569,0.2569,0.2585,0,0.2092,0.2102,0.2147,0.2159,0.2163,0.2223,0.2252,0.2298,0.2342,0.2374,0.2419,0.2445,0.2467,0.2482,0.2514,0.255,0.2568,0.2554,0.2555,0.2554,0.2554,0.2617,0.2572,0.2585,0.2588,0.2589,0.2589,0,0.2051,0.2068,0.2066,0.2107,0.2115,0.2138,0.2184,0.222,0.2293,0.233,0.2376,0.2415,0.247,0.2485,0.2549,0.2542,0.2562,0.259,0.2591,0.2584,0.2578,0.2538,0.259,0.2541,0.2594,0.2593,0.2593,0,0.1966,0.1998,0.1988,0.2004,0.2072,0.2081,0.2118,0.2191,0.2237,0.2302,0.2352,0.24,0.2454,0.2485,0.2567,0.2554,0.2642,0.2621,0.2645,0.2646,0.2593,0.2589,0.2583,0.2645,0.2645,0.2645,0.2645,0,0.1905,0.1909,0.1945,0.1946,0.1953,0.2014,0.2038,0.2095,0.2181,0.2241,0.2318,0.2385,0.2464,0.2537,0.2566,0.2636,0.2636,0.2653,0.2658,0.2614,0.2611,0.2553,0.2531,0.2645,0.2645,0.2645,0.2645,0,0.187,0.1866,0.1877,0.1914,0.1917,0.1936,0.2018,0.2061,0.2134,0.2221,0.2252,0.2394,0.2492,0.2568,0.2642,0.2653,0.2635,0.2712,0.2658,0.2656,0.2614,0.2597,0.2467,0.2382,0.2718,0.2719,0.2719,0,0.1882,0.1869,0.1866,0.1871,0.1899,0.1924,0.1959,0.2031,0.2093,0.223,0.2283,0.2413,0.2516,0.2646,0.2693,0.2741,0.2657,0.2707,0.267,0.2615,0.2599,0.2469,0.2396,0.262,0.2619,0.2619,0.2619,0,0.1937,0.1912,0.1925,0.1899,0.191,0.1933,0.1979,0.201,0.2105,0.2187,0.2308,0.2396,0.2556,0.2621,0.271,0.2727,0.2591,0.2703,0.2656,0.2535,0.2379,0.2299,0.2599,0.2617,0.2617,0.2617,0.2617,0.2617,0.2002,0.2004,0.1964,0.1949,0.1951,0.1934,0.1921,0.199,0.2047,0.2135,0.2264,0.2366,0.2528,0.2664,0.2657,0.2644,0.2581,0.2587,0.2575,0.2449,0.2353,0.2653,0.2675,0.2676,0.2676,0.2677,0.2677,0,0.2055,0.2022,0.2024,0.1955,0.1932,0.1924,0.1934,0.1909,0.1932,0.2066,0.2157,0.2331,0.244,0.2531,0.261,0.2534,0.2379,0.2473,0.2275,0.221,0.2501,0.2486,0.2456,0.2456,0.2456,0.2456,0.2456,0.2457,0.2073,0.2039,0.2001,0.192,0.1885,0.1803,0.1775,0.1764,0.1815,0.1897,0.1991,0.2113,0.2359,0.255,0.2529,0.2459,0.2235,0.2167,0.2105,0.2342,0.2351,0.2358,0.2339,0.2279,0.2278,0.1716,0.1712,0.1709]},{"header":{"parameterUnit":"m.s-1","parameterCategory":2,"la1":30.2991,"la2":30.254,"lo1":-89.0895,"lo2":-89.0444,"dy":0.0017,"dx":0.0017,"nx":28,"ny":28,"refTime":"2025-04-22T09:00:00:Z","depth":"0","parameterNumber":3,"parameterNumberName":"V-component_of_CURRENTS"},"data":[0,0,0,0,0,0,0,0,0,0,0,0,0,0,0,0,0,0,0,0,0,0,0,0,0,0,0,0,0,0,0,0,0,0,0,0,0,0,0,0,0,0,0,0,0,0,0,0,0,0,0,0,0,0,0,0,0,0,0.0107,0.0106,0,0.0036,0.0035,0.0034,-0.0009,-0.0008,-0.0008,-0.0008,-0.0128,-0.0131,-0.0134,0,0,0,0,0,0,0,0,0,0,0,0,0,0.0121,0.0121,0.0107,0.0106,0.0106,0.0036,0.0035,0.0033,-0.0009,-0.0008,-0.0008,-0.0008,-0.0127,-0.0131,-0.0134,0,0,0,0,0,0,0,0,0,0,0,0,0,0.0087,0.0121,0.0107,0.0078,0.0075,0.0036,0.0035,0.0033,-0.0009,-0.0008,-0.0008,-0.0008,-0.0125,-0.013,-0.0135,-0.0165,0,0,-0.015,-0.0152,0,0,0,0,0,0,0,0,0.0089,0.0086,0.0083,0.008,0.0076,0.0025,-0.0004,-0.0035,-0.0009,0.0021,-0.0008,-0.0008,-0.008,-0.0088,-0.0104,-0.0171,-0.0176,-0.015,-0.0153,-0.0155,-0.0156,0,0,0,0,0,0,0,0.0091,0.0088,0.0076,0.0082,0.0078,0.0039,0.0035,-0.0011,-0.0032,0.0018,0.0015,0.0011,-0.0082,-0.01,-0.0108,-0.0178,-0.015,-0.0154,-0.0157,-0.0159,-0.0272,-0.0273,0,0,0,0,0,0,0.0109,0.0091,0.0079,0.0074,0.0085,0.0039,0.0034,0.0039,-0.003,-0.004,0.0011,0.001,-0.0092,-0.0102,-0.0112,-0.0136,-0.0155,-0.0159,-0.0162,-0.0272,-0.0273,-0.0273,0,0,0,0,0,0,0.011,0.0109,0.0082,0.0082,0.0076,0.004,0.0045,0.0038,0.0025,-0.0034,-0.0045,0.0007,-0.0092,-0.0105,-0.0144,-0.0142,-0.0162,-0.0166,-0.0272,-0.0272,-0.0273,-0.0195,0,0,0,0,0,0,0.0111,0.011,0.0116,0.0084,0.0077,0.0068,0.0045,0.0036,0.0023,0.002,-0.0042,-0.0053,-0.0093,-0.0137,-0.0149,-0.0149,-0.017,-0.0272,-0.0272,-0.0273,-0.0198,-0.0193,-0.0189,0,0,0,0,0,0.0112,0.0124,0.0117,0.0116,0.0089,0.0068,0.0061,0.0033,0.0023,0.0021,-0.002,-0.0051,-0.0147,-0.0141,-0.0155,-0.0156,-0.0272,-0.0272,-0.0272,-0.02,-0.0194,-0.0189,0,0,0,0,0,0,0.0128,0.012,0.0112,0.012,0.01,0.0063,0.0057,0.0039,0.0005,0.0002,-0.0053,-0.0068,-0.0102,-0.0141,-0.0132,-0.0191,-0.0215,-0.0218,-0.0155,-0.015,-0.0145,-0.0113,-0.0174,0,0,0,0,0,0.0137,0.0147,0.0126,0.0131,0.0126,0.0093,0.0081,0.0064,0.0031,0.0016,-0.0025,-0.0073,-0.0116,-0.014,-0.0185,-0.0217,-0.0239,-0.0228,-0.0223,-0.0219,-0.0203,-0.0235,-0.0231,-0.0274,-0.0274,-0.0274,0,0,0.0145,0.0141,0.0146,0.0136,0.0118,0.0119,0.0086,0.0074,0.0072,0.0007,-0.0011,-0.006,-0.0122,-0.0155,-0.0174,-0.0185,-0.0219,-0.022,-0.0215,-0.0202,-0.0235,-0.023,-0.0226,-0.0274,-0.0274,-0.0274,0,0,0.0171,0.0163,0.0184,0.0172,0.0157,0.0136,0.0139,0.0107,0.0091,0.0066,0.0019,-0.0019,-0.0087,-0.0125,-0.0154,-0.0153,-0.0194,-0.0176,-0.0127,-0.0158,-0.0154,-0.0151,-0.0167,-0.0166,-0.0173,-0.0173,-0.0173,0,0.0182,0.0204,0.0183,0.0196,0.0193,0.0152,0.0169,0.0144,0.0103,0.0094,0.0072,-0.0016,-0.0069,-0.0104,-0.0105,-0.0141,-0.0161,-0.0139,-0.0149,-0.0147,-0.0145,-0.0163,-0.0162,-0.0169,-0.017,-0.017,-0.017,0,0.0227,0.0237,0.0246,0.0255,0.0246,0.025,0.0222,0.0209,0.0183,0.0158,0.0121,0.005,0.0003,-0.0027,-0.0067,-0.0085,-0.0104,-0.0137,-0.0155,-0.0135,-0.0156,-0.0157,-0.0164,-0.0165,-0.0166,-0.0167,0,0,0.0276,0.028,0.0285,0.0296,0.0279,0.0279,0.0276,0.0264,0.0269,0.0217,0.0217,0.0138,0.0102,0.0067,0.0007,-0.0023,-0.0032,-0.0067,-0.0071,-0.0068,-0.0087,-0.0093,-0.0096,-0.0067,-0.0067,-0.0067,-0.0104,0,0.0321,0.0362,0.0349,0.0378,0.0395,0.0359,0.0361,0.034,0.0312,0.0298,0.0229,0.0198,0.0136,0.0113,0.0076,-0.0008,-0.0032,-0.0018,-0.012,-0.0122,-0.0118,-0.0096,-0.0073,-0.0103,-0.0106,-0.0106,-0.0106,0,0.0377,0.0396,0.0437,0.0444,0.045,0.0455,0.0456,0.045,0.0414,0.0392,0.0354,0.03,0.0247,0.0189,0.0084,0.0096,0.0019,-0.0045,-0.0048,-0.0078,-0.013,-0.0127,-0.0106,-0.023,-0.0108,-0.0108,-0.0108,0,0.0431,0.0457,0.0493,0.0495,0.0497,0.0506,0.0502,0.0479,0.0493,0.0451,0.0459,0.0381,0.035,0.0246,0.012,0.0101,0.0008,-0.004,-0.0114,-0.0115,-0.0126,-0.0128,-0.0222,-0.0105,-0.0104,-0.0104,-0.0104,0,0.0489,0.0518,0.0519,0.0539,0.058,0.0556,0.0591,0.0574,0.0571,0.06,0.0511,0.0523,0.0364,0.029,0.016,0.0032,0.0038,-0.009,-0.0122,-0.0099,-0.0099,-0.0234,-0.0314,-0.0106,-0.0105,-0.0105,-0.0105,0,0.0558,0.0549,0.0595,0.0606,0.0605,0.0638,0.0659,0.0697,0.0668,0.0704,0.0701,0.0639,0.0542,0.0383,0.0218,0.0097,-0.0111,-0.0088,-0.0041,-0.0067,-0.0254,-0.033,-0.0467,-0.053,-0.017,-0.0171,-0.0171,0,0.0604,0.0638,0.0656,0.0686,0.0695,0.0728,0.0761,0.0746,0.0792,0.0784,0.0822,0.0743,0.0714,0.0476,0.0242,0.0027,-0.0114,-0.0097,-0.0134,-0.0246,-0.0355,-0.0421,-0.0469,-0.0119,-0.0119,-0.0119,-0.0119,0,0.0719,0.072,0.0758,0.0797,0.0835,0.0881,0.0921,0.0969,0.0962,0.0997,0.1032,0.1007,0.0775,0.0575,0.027,0.0112,-0.0184,-0.0101,-0.0234,-0.0329,-0.0389,-0.0469,-0.011,-0.0118,-0.0118,-0.0118,-0.0118,-0.0118,0.081,0.0859,0.0888,0.0926,0.0971,0.1025,0.107,0.1135,0.1205,0.1251,0.1209,0.1193,0.0883,0.0476,0.0238,-0.0165,-0.0193,-0.0284,-0.0367,-0.0423,-0.0484,-0.011,-0.0147,-0.0148,-0.0148,-0.0148,-0.0148,0,0.0895,0.0941,0.1013,0.1044,0.1098,0.109,0.1176,0.1229,0.1324,0.1384,0.1405,0.126,0.0879,0.0476,-0.0069,-0.0365,-0.049,-0.0534,-0.0625,-0.0662,-0.0338,-0.0336,-0.0393,-0.0393,-0.0393,-0.0393,-0.0393,-0.0392,0.0944,0.1014,0.1036,0.1127,0.116,0.1223,0.1268,0.1363,0.1428,0.1509,0.1515,0.1495,0.1214,0.0203,-0.0459,-0.0615,-0.0848,-0.0903,-0.1024,-0.0805,-0.0788,-0.0772,-0.0788,-0.094,-0.0941,-0.13,-0.1304,-0.1307]}],[{"header":{"parameterUnit":"m.s-1","parameterCategory":2,"la1":30.2991,"la2":30.254,"lo1":-89.0895,"lo2":-89.0444,"dy":0.0017,"dx":0.0017,"nx":28,"ny":28,"refTime":"2025-04-22T09:00:00:Z","depth":"2","parameterNumber":2,"parameterNumberName":"U-component_of_CURRENTS"},"data":[0,0,0,0,0,0,0,0,0,0,0,0,0,0,0,0,0,0,0,0,0,0,0,0,0,0,0,0,0,0,0,0,0,0,0,0,0,0,0,0,0,0,0,0,0,0,0,0,0,0,0,0,0,0,0,0,0,0,0.2074,0.2075,0,0.2124,0.2125,0.2126,0.2138,0.2138,0.2137,0.2137,0.2137,0.2137,0.2138,0,0,0,0,0,0,0,0,0,0,0,0,0,0.2026,0.2026,0.2074,0.2075,0.2075,0.2124,0.2125,0.2126,0.2138,0.2138,0.2137,0.2136,0.2137,0.2137,0.2138,0,0,0,0,0,0,0,0,0,0,0,0,0,0.206,0.2027,0.2074,0.2086,0.2087,0.2124,0.2125,0.2126,0.2138,0.2138,0.2137,0.2136,0.2136,0.2137,0.2138,0.2158,0,0,0.214,0.214,0,0,0,0,0,0,0,0,0.2058,0.2062,0.2083,0.2085,0.2086,0.2122,0.2108,0.2134,0.2139,0.2121,0.2137,0.2136,0.2126,0.2128,0.2143,0.2158,0.2158,0.214,0.2141,0.2141,0.2141,0,0,0,0,0,0,0,0.2056,0.2061,0.2096,0.2084,0.2086,0.21,0.2104,0.2113,0.2128,0.2123,0.2123,0.2125,0.2127,0.2142,0.2143,0.2158,0.214,0.2141,0.2141,0.2141,0.2218,0.222,0,0,0,0,0,0,0.2044,0.2058,0.2095,0.2098,0.2067,0.2101,0.2106,0.2113,0.213,0.2131,0.2126,0.2126,0.2141,0.2142,0.2143,0.219,0.2141,0.2142,0.2142,0.2217,0.2219,0.222,0,0,0,0,0,0,0.2043,0.2047,0.2093,0.2077,0.2083,0.2103,0.2111,0.2115,0.213,0.2132,0.2133,0.2136,0.2141,0.2142,0.2159,0.2189,0.2142,0.2143,0.2215,0.2217,0.2219,0.2269,0,0,0,0,0,0,0.2042,0.2047,0.2055,0.2076,0.2084,0.2112,0.2112,0.2116,0.2131,0.2131,0.2141,0.2141,0.214,0.2158,0.2159,0.2189,0.2143,0.2213,0.2216,0.2219,0.2266,0.2273,0.228,0,0,0,0,0,0.204,0.2055,0.2055,0.2059,0.2092,0.2112,0.2118,0.213,0.2132,0.2141,0.2153,0.214,0.2178,0.2159,0.2161,0.2191,0.2211,0.2215,0.2218,0.2263,0.2272,0.2279,0,0,0,0,0,0,0.2055,0.2058,0.2058,0.2078,0.209,0.2113,0.2134,0.2133,0.2153,0.2163,0.2156,0.2157,0.2188,0.2182,0.2161,0.2224,0.2195,0.2199,0.2228,0.2237,0.2243,0.2222,0.2144,0,0,0,0,0,0.2057,0.2062,0.207,0.209,0.21,0.2116,0.2129,0.2137,0.2154,0.2163,0.2174,0.219,0.2207,0.2212,0.2231,0.2257,0.2244,0.228,0.2287,0.2293,0.2278,0.2292,0.2298,0.2232,0.2232,0.2232,0,0,0.2069,0.2073,0.2078,0.2092,0.2112,0.2122,0.2124,0.2153,0.2163,0.216,0.2195,0.2216,0.2221,0.2259,0.2272,0.2254,0.231,0.2297,0.2302,0.2284,0.2296,0.2302,0.2308,0.2235,0.2234,0.2234,0,0,0.2083,0.2104,0.2102,0.2115,0.2135,0.2145,0.2149,0.2179,0.2197,0.2228,0.2236,0.2267,0.2295,0.2308,0.2313,0.2365,0.235,0.2383,0.2395,0.241,0.2415,0.2419,0.2426,0.2431,0.2382,0.2382,0.2382,0,0.2092,0.209,0.2109,0.2115,0.2125,0.215,0.2154,0.2183,0.2215,0.223,0.2244,0.2302,0.2315,0.234,0.237,0.2379,0.2382,0.2362,0.2418,0.2421,0.2424,0.2431,0.2435,0.2385,0.2385,0.2384,0.2384,0,0.2092,0.2098,0.2112,0.2115,0.2136,0.2152,0.2183,0.2216,0.2245,0.2264,0.2313,0.2347,0.2368,0.2398,0.2401,0.2439,0.2433,0.2428,0.2391,0.2434,0.2438,0.2441,0.2389,0.2388,0.2387,0.2387,0,0,0.2059,0.2095,0.2093,0.2096,0.2135,0.2147,0.219,0.2214,0.2234,0.2292,0.2316,0.2376,0.2398,0.2405,0.2427,0.2451,0.2496,0.2455,0.2454,0.2452,0.2528,0.2532,0.2536,0.2505,0.2506,0.2506,0.2527,0,0.2036,0.2037,0.2065,0.2076,0.2079,0.2132,0.216,0.2201,0.2247,0.2289,0.2338,0.2376,0.2397,0.2423,0.245,0.2489,0.2505,0.249,0.2494,0.2494,0.2484,0.2539,0.236,0.2364,0.253,0.253,0.253,0,0.1988,0.2001,0.2002,0.2042,0.2051,0.2066,0.2117,0.215,0.2221,0.2265,0.2316,0.2358,0.2412,0.2426,0.2488,0.2481,0.2501,0.2527,0.2528,0.2509,0.2503,0.2347,0.2363,0.2535,0.2535,0.2535,0.2534,0,0.1915,0.1942,0.1939,0.1954,0.2013,0.2031,0.2063,0.2133,0.2181,0.2249,0.2302,0.235,0.2405,0.2433,0.251,0.2497,0.2579,0.2559,0.2571,0.2571,0.2404,0.2389,0.258,0.258,0.258,0.258,0.258,0,0.1857,0.1862,0.1903,0.1908,0.1923,0.1978,0.2008,0.2063,0.2147,0.2204,0.2278,0.2341,0.2416,0.2484,0.251,0.2568,0.2574,0.2577,0.2581,0.2421,0.2408,0.2538,0.2533,0.2581,0.2581,0.258,0.258,0,0.1812,0.1819,0.1834,0.188,0.1889,0.1911,0.1993,0.2035,0.211,0.2193,0.2224,0.2355,0.2444,0.2514,0.2582,0.2585,0.2622,0.2632,0.2446,0.2429,0.2595,0.2592,0.2625,0.2626,0.2626,0.2626,0.2626,0,0.1815,0.1799,0.1822,0.1837,0.1866,0.1899,0.1934,0.2008,0.2064,0.2201,0.2247,0.237,0.2456,0.257,0.2594,0.263,0.2655,0.2471,0.2413,0.2601,0.2601,0.2598,0.2595,0.2209,0.2206,0.2203,0.2201,0,0.1846,0.183,0.1855,0.1849,0.1871,0.1899,0.1949,0.1976,0.2069,0.2143,0.2251,0.2328,0.2461,0.2441,0.2512,0.25,0.2451,0.2422,0.2657,0.2245,0.2216,0.2214,0.2223,0.2177,0.218,0.2182,0.2183,0.2184,0.1892,0.1901,0.189,0.1878,0.1901,0.1893,0.1879,0.1942,0.1989,0.2057,0.2179,0.2226,0.229,0.232,0.2269,0.2229,0.2394,0.2275,0.2279,0.2287,0.2255,0.223,0.2188,0.219,0.2192,0.2194,0.2195,0,0.1935,0.1919,0.1925,0.1884,0.1869,0.1877,0.189,0.1853,0.1859,0.1956,0.2023,0.1926,0.1949,0.199,0.1915,0.1942,0.1876,0.1846,0.1734,0.1762,0.1786,0.1723,0.1517,0.1514,0.1511,0.1509,0,0,0.1961,0.194,0.1897,0.1833,0.1813,0.1749,0.1725,0.1692,0.1717,0.1698,0.1709,0.1877,0.1968,0.1715,0.1703,0.159,0.1647,0.1528,0.2087,0.1986,0.2005,0.2067,0.2009,0,0,0,0,0]},{"header":{"parameterUnit":"m.s-1","parameterCategory":2,"la1":30.2991,"la2":30.254,"lo1":-89.0895,"lo2":-89.0444,"dy":0.0017,"dx":0.0017,"nx":28,"ny":28,"refTime":"2025-04-22T09:00:00:Z","depth":"2","parameterNumber":3,"parameterNumberName":"V-component_of_CURRENTS"},"data":[0,0,0,0,0,0,0,0,0,0,0,0,0,0,0,0,0,0,0,0,0,0,0,0,0,0,0,0,0,0,0,0,0,0,0,0,0,0,0,0,0,0,0,0,0,0,0,0,0,0,0,0,0,0,0,0,0,0,-0.0,-0.0001,0,-0.006,-0.0061,-0.0061,-0.0099,-0.0099,-0.0099,-0.0099,-0.0203,-0.0206,-0.0208,0,0,0,0,0,0,0,0,0,0,0,0,0,0.0017,0.0017,0.0,-0.0001,-0.0001,-0.006,-0.0061,-0.0062,-0.0099,-0.0099,-0.0099,-0.0099,-0.0202,-0.0205,-0.0208,0,0,0,0,0,0,0,0,0,0,0,0,0,-0.0012,0.0017,0.0,-0.0027,-0.003,-0.006,-0.0061,-0.0062,-0.0099,-0.0099,-0.0099,-0.01,-0.0201,-0.0205,-0.0209,-0.0227,0,0,-0.0221,-0.0222,0,0,0,0,0,0,0,0,-0.001,-0.0012,-0.0022,-0.0025,-0.0029,-0.0072,-0.0093,-0.0119,-0.0099,-0.0073,-0.0099,-0.01,-0.0163,-0.017,-0.018,-0.0232,-0.0236,-0.0221,-0.0223,-0.0225,-0.0226,0,0,0,0,0,0,0,-0.0008,-0.001,-0.0024,-0.0023,-0.0027,-0.0059,-0.0062,-0.0098,-0.0117,-0.0075,-0.0078,-0.0084,-0.0165,-0.0176,-0.0183,-0.0238,-0.0221,-0.0224,-0.0227,-0.0228,-0.0317,-0.0317,0,0,0,0,0,0,0.0004,-0.0008,-0.0022,-0.0026,-0.002,-0.0058,-0.0063,-0.0058,-0.0115,-0.0124,-0.0084,-0.0086,-0.017,-0.0179,-0.0187,-0.0205,-0.0225,-0.0229,-0.0231,-0.0317,-0.0317,-0.0317,0,0,0,0,0,0,0.0005,0.0004,-0.002,-0.0019,-0.0024,-0.0058,-0.0053,-0.0059,-0.0068,-0.0121,-0.0131,-0.0086,-0.017,-0.0182,-0.0214,-0.021,-0.023,-0.0234,-0.0317,-0.0317,-0.0317,-0.0246,0,0,0,0,0,0,0.0006,0.0005,0.0012,-0.0018,-0.0024,-0.0028,-0.0053,-0.006,-0.0071,-0.0074,-0.0126,-0.0136,-0.0171,-0.0208,-0.0218,-0.0215,-0.0237,-0.0317,-0.0317,-0.0317,-0.0248,-0.0244,-0.024,0,0,0,0,0,0.0007,0.0024,0.0013,0.0011,-0.0012,-0.0028,-0.0034,-0.006,-0.0071,-0.0069,-0.0106,-0.0134,-0.0216,-0.0211,-0.0223,-0.0221,-0.0317,-0.0317,-0.0317,-0.025,-0.0244,-0.024,0,0,0,0,0,0,0.0035,0.0021,0.0008,0.002,-0.0001,-0.0034,-0.0034,-0.0053,-0.0081,-0.0085,-0.0134,-0.0147,-0.0175,-0.0209,-0.0202,-0.0248,-0.0271,-0.0274,-0.0217,-0.0212,-0.0207,-0.018,-0.024,0,0,0,0,0,0.0045,0.0053,0.0029,0.0037,0.0031,-0.0001,-0.0011,-0.0029,-0.0058,-0.007,-0.0106,-0.0148,-0.0185,-0.0205,-0.0243,-0.0266,-0.0289,-0.0274,-0.027,-0.0266,-0.0252,-0.0283,-0.028,-0.0317,-0.0317,-0.0317,0,0,0.0056,0.005,0.0054,0.0043,0.0026,0.0025,-0.0007,-0.0016,-0.0019,-0.0078,-0.0091,-0.0134,-0.0189,-0.0215,-0.023,-0.0241,-0.0268,-0.0266,-0.0262,-0.025,-0.0283,-0.0279,-0.0275,-0.0317,-0.0317,-0.0317,0,0,0.0087,0.0081,0.0099,0.0087,0.0068,0.0048,0.0049,0.0019,0.0006,-0.0016,-0.006,-0.0094,-0.015,-0.0184,-0.021,-0.0205,-0.0244,-0.0224,-0.0178,-0.0208,-0.0205,-0.0202,-0.0222,-0.0222,-0.022,-0.022,-0.022,0,0.0102,0.0121,0.0099,0.011,0.0106,0.0064,0.0077,0.0056,0.0018,0.0011,-0.001,-0.0086,-0.0133,-0.0163,-0.0163,-0.0193,-0.0214,-0.0191,-0.02,-0.0198,-0.0197,-0.0218,-0.0219,-0.0217,-0.0217,-0.0217,-0.0218,0,0.0145,0.0154,0.0164,0.0166,0.0158,0.0162,0.0132,0.0122,0.0097,0.0072,0.0041,-0.0022,-0.0063,-0.009,-0.0126,-0.0141,-0.016,-0.019,-0.0207,-0.0188,-0.0213,-0.0214,-0.0212,-0.0213,-0.0214,-0.0215,0,0,0.0196,0.0196,0.0201,0.0208,0.0189,0.019,0.0187,0.0174,0.0178,0.0131,0.0132,0.0061,0.0029,-0.0003,-0.0056,-0.0085,-0.0097,-0.0126,-0.0129,-0.0133,-0.0154,-0.0161,-0.0164,-0.0128,-0.0129,-0.0129,-0.0174,0,0.0236,0.0272,0.0259,0.0285,0.0299,0.0264,0.0267,0.0246,0.022,0.0207,0.0144,0.0118,0.0061,0.0041,0.0005,-0.0073,-0.0099,-0.0082,-0.0183,-0.0185,-0.0183,-0.0165,-0.0146,-0.0184,-0.0176,-0.0176,-0.0176,0,0.0284,0.0303,0.0341,0.0348,0.0352,0.0357,0.0359,0.0353,0.0318,0.0298,0.0262,0.0212,0.0162,0.011,0.0007,0.0021,-0.0053,-0.0115,-0.0119,-0.0148,-0.0195,-0.0204,-0.0188,-0.018,-0.018,-0.0179,-0.0179,0,0.0333,0.0358,0.0392,0.0395,0.0396,0.0406,0.0402,0.0381,0.0393,0.0355,0.0361,0.0287,0.0258,0.0159,0.0038,0.0022,-0.0075,-0.0117,-0.019,-0.0192,-0.0206,-0.0208,-0.0182,-0.0182,-0.0182,-0.0182,-0.0182,0,0.038,0.0404,0.0417,0.0435,0.0475,0.0455,0.0489,0.0471,0.0469,0.0492,0.0412,0.0419,0.027,0.0196,0.0072,-0.0053,-0.0048,-0.017,-0.0201,-0.0181,-0.018,-0.0205,-0.0207,-0.0184,-0.0183,-0.0183,-0.0183,0,0.0416,0.0426,0.0467,0.0489,0.0496,0.0523,0.0551,0.0582,0.0561,0.059,0.0587,0.0525,0.0428,0.0278,0.0118,0.0004,-0.0128,-0.0177,-0.0136,-0.0161,-0.0235,-0.0233,-0.026,-0.026,-0.0261,-0.0261,-0.0261,0,0.0433,0.0455,0.051,0.0548,0.0558,0.0594,0.0627,0.0624,0.0662,0.0661,0.0688,0.0613,0.0574,0.0343,0.0126,-0.0079,-0.0116,-0.0197,-0.0227,-0.0214,-0.0241,-0.0238,-0.0236,-0.022,-0.022,-0.022,-0.022,0,0.046,0.0483,0.0531,0.0606,0.0655,0.0709,0.0752,0.0795,0.0798,0.0827,0.085,0.0822,0.061,0.0409,0.0127,-0.0014,-0.0164,-0.0202,-0.0199,-0.02,-0.0179,-0.0205,-0.0204,-0.022,-0.022,-0.022,-0.022,-0.022,0.0479,0.0528,0.0596,0.066,0.0736,0.0807,0.0847,0.0904,0.0962,0.0996,0.0974,0.0933,0.0703,0.035,0.0103,-0.0158,-0.0154,-0.0249,-0.0248,-0.0248,-0.0231,-0.0212,-0.0255,-0.0256,-0.0256,-0.0256,-0.0256,0,0.0476,0.0552,0.0637,0.0722,0.0805,0.0835,0.0925,0.0958,0.1025,0.108,0.1096,0.0882,0.0664,0.0397,0.001,-0.0218,-0.0239,-0.0286,-0.0267,-0.0266,-0.0265,-0.0249,-0.0278,-0.0279,-0.028,-0.028,0,0,0.0485,0.056,0.0607,0.0741,0.082,0.0915,0.0968,0.1025,0.1077,0.1106,0.1101,0.1076,0.0753,0.0472,0.0158,-0.0063,-0.011,-0.0103,-0.006,0.0001,0.0005,-0.0218,-0.0189,0,0,0,0,0]}],[{"header":{"parameterUnit":"m.s-1","parameterCategory":2,"la1":30.2991,"la2":30.254,"lo1":-89.0895,"lo2":-89.0444,"dy":0.0017,"dx":0.0017,"nx":28,"ny":28,"refTime":"2025-04-22T09:00:00:Z","depth":"4","parameterNumber":2,"parameterNumberName":"U-component_of_CURRENTS"},"data":[0,0,0,0,0,0,0,0,0,0,0,0,0,0,0,0,0,0,0,0,0,0,0,0,0,0,0,0,0,0,0,0,0,0,0,0,0,0,0,0,0,0,0,0,0,0,0,0,0,0,0,0,0,0,0,0,0,0,0.1196,0.1197,0,0.1257,0.1258,0.1258,0.1299,0.1299,0.13,0.13,0.1355,0.1356,0.1357,0,0,0,0,0,0,0,0,0,0,0,0,0,0.1072,0.1074,0.1196,0.1197,0.1198,0.1257,0.1258,0.1258,0.1299,0.1299,0.13,0.1301,0.1355,0.1356,0.1357,0,0,0,0,0,0,0,0,0,0,0,0,0,0.1126,0.1075,0.1196,0.1227,0.1231,0.1257,0.1258,0.1259,0.1299,0.1299,0.13,0.1301,0.1354,0.1356,0.1357,0.1351,0,0,0.1362,0.1362,0,0,0,0,0,0,0,0,0.1123,0.1131,0.1221,0.1225,0.1229,0.1274,0.1234,0.129,0.1298,0.127,0.13,0.1301,0.1328,0.1332,0.1338,0.1353,0.1356,0.1362,0.1363,0.1363,0.1364,0,0,0,0,0,0,0,0.112,0.1128,0.1217,0.1222,0.1227,0.1224,0.1233,0.1245,0.1292,0.1272,0.1276,0.1287,0.133,0.1337,0.134,0.1356,0.1362,0.1363,0.1364,0.1364,0.1455,0.1457,0,0,0,0,0,0,0.1119,0.1125,0.1215,0.1219,0.118,0.1226,0.1236,0.1256,0.1292,0.1299,0.1286,0.1289,0.1334,0.1338,0.1342,0.1417,0.1363,0.1365,0.1365,0.1454,0.1455,0.1457,0,0,0,0,0,0,0.1116,0.1127,0.1213,0.1175,0.1186,0.1228,0.125,0.1257,0.1293,0.1303,0.131,0.1319,0.1334,0.134,0.1383,0.1417,0.1365,0.1367,0.1452,0.1454,0.1456,0.1516,0,0,0,0,0,0,0.1113,0.1126,0.1149,0.1175,0.1188,0.1248,0.125,0.1258,0.1298,0.1303,0.1333,0.1337,0.1335,0.1381,0.1384,0.1418,0.1368,0.145,0.1453,0.1456,0.1512,0.152,0.1527,0,0,0,0,0,0.1108,0.1135,0.115,0.1162,0.1217,0.1249,0.1256,0.1285,0.1299,0.132,0.1345,0.1338,0.1401,0.1383,0.1387,0.1422,0.1448,0.1452,0.1455,0.1509,0.1519,0.1527,0,0,0,0,0,0,0.1083,0.1143,0.116,0.1202,0.1233,0.1258,0.1285,0.1302,0.1337,0.135,0.1356,0.1363,0.1414,0.1409,0.1389,0.1456,0.1424,0.1428,0.1464,0.1473,0.148,0.148,0.1369,0,0,0,0,0,0.1091,0.1138,0.1176,0.1211,0.1232,0.1263,0.1285,0.1304,0.1334,0.1352,0.1376,0.1401,0.1425,0.1443,0.1461,0.1496,0.1498,0.1522,0.1529,0.1535,0.1539,0.1577,0.1588,0.1468,0.1468,0.1468,0,0,0.1089,0.113,0.1156,0.1211,0.124,0.1274,0.1279,0.1321,0.1353,0.1351,0.1412,0.143,0.1441,0.1485,0.1507,0.1489,0.1572,0.154,0.1545,0.1545,0.1582,0.1594,0.1604,0.1471,0.147,0.147,0,0,0.1107,0.115,0.1195,0.1226,0.1281,0.1298,0.1318,0.1362,0.1391,0.1438,0.1452,0.1492,0.1528,0.1546,0.1556,0.1614,0.1611,0.1626,0.1665,0.1703,0.1713,0.1721,0.1741,0.1752,0.1629,0.1629,0.1629,0,0.1106,0.1167,0.1208,0.1253,0.1284,0.1314,0.1354,0.1382,0.1436,0.1466,0.1467,0.1544,0.1553,0.1608,0.163,0.1631,0.1649,0.1629,0.1712,0.1721,0.1729,0.1747,0.1758,0.1632,0.1632,0.1632,0.1631,0,0.1149,0.1203,0.1231,0.1303,0.1336,0.1376,0.1417,0.1461,0.1496,0.1523,0.1594,0.1613,0.1659,0.1671,0.1668,0.1737,0.1731,0.1718,0.1688,0.1745,0.176,0.177,0.1637,0.1636,0.1635,0.1634,0,0,0.1136,0.1243,0.1257,0.1296,0.1369,0.1396,0.1457,0.1517,0.1561,0.1613,0.1673,0.1719,0.174,0.1753,0.1765,0.1795,0.1864,0.1788,0.1788,0.1805,0.1949,0.1833,0.1832,0.1876,0.1878,0.188,0.1937,0,0.1161,0.1251,0.1298,0.1371,0.1414,0.1463,0.1512,0.1568,0.1616,0.1679,0.1717,0.1773,0.1768,0.1799,0.1835,0.1859,0.1894,0.1849,0.1894,0.1894,0.1783,0.1841,0.1886,0.1945,0.1947,0.1948,0.195,0,0.1188,0.1247,0.1328,0.1413,0.1437,0.1479,0.1565,0.1613,0.1697,0.1738,0.1805,0.1836,0.1906,0.1883,0.1963,0.1941,0.1956,0.1963,0.1965,0.184,0.1796,0.1876,0.1967,0.1966,0.1964,0.1963,0.1962,0,0.1158,0.1265,0.1332,0.1362,0.1458,0.1503,0.1554,0.1636,0.1687,0.1783,0.183,0.1909,0.1957,0.1997,0.2024,0.2008,0.2094,0.2067,0.1976,0.1967,0.2027,0.2016,0.2122,0.2122,0.2122,0.2122,0.2122,0,0.116,0.121,0.1326,0.1358,0.1425,0.1496,0.1569,0.1629,0.1725,0.178,0.1863,0.1912,0.1992,0.2048,0.2058,0.2048,0.2128,0.1991,0.1979,0.205,0.2042,0.2033,0.2022,0.2124,0.2123,0.2123,0.2123,0,0.1104,0.1192,0.1262,0.1376,0.1414,0.1457,0.1571,0.1618,0.1718,0.1795,0.1833,0.1944,0.2007,0.2068,0.2128,0.2077,0.2082,0.2058,0.2137,0.2127,0.192,0.1912,0.1955,0.1951,0.1948,0.1946,0.1944,0,0.1082,0.1119,0.1251,0.1294,0.1347,0.1428,0.148,0.1599,0.1648,0.1791,0.1817,0.1927,0.1983,0.198,0.2048,0.2066,0.2042,0.2029,0.1964,0.1921,0.1906,0.1902,0.1898,0.1939,0.1938,0.1937,0.1937,0,0.1017,0.1076,0.113,0.1224,0.1296,0.136,0.1446,0.1476,0.1602,0.1717,0.176,0.1796,0.1865,0.1904,0.1939,0.1944,0.2026,0.1997,0.2002,0.1941,0.1902,0.1889,0.1889,0.1926,0.1928,0.1929,0.1929,0,0.096,0.0973,0.1061,0.1132,0.122,0.1263,0.1322,0.1385,0.1453,0.1614,0.1623,0.1735,0.1841,0.1842,0.1872,0.1874,0.184,0.1771,0.1788,0.18,0.1722,0.1648,0.1593,0,0,0,0,0,0.0897,0.0905,0.0963,0.1039,0.1124,0.1178,0.1286,0.1348,0.1479,0.1472,0.1544,0.1596,0.164,0.1702,0.1674,0.1804,0.1848,0.1763,0.1776,0.1869,0.1881,0.1804,0,0,0,0,0,0,0.0853,0.0893,0.0923,0.0952,0.0986,0.1063,0.1129,0.1218,0.1223,0.1359,0.1395,0.1498,0.157,0.1638,0.164,0.166,0.1636,0.1841,0.1837,0.1862,0.1873,0.1883,0.1808,0,0,0,0,0]},{"header":{"parameterUnit":"m.s-1","parameterCategory":2,"la1":30.2991,"la2":30.254,"lo1":-89.0895,"lo2":-89.0444,"dy":0.0017,"dx":0.0017,"nx":28,"ny":28,"refTime":"2025-04-22T09:00:00:Z","depth":"4","parameterNumber":3,"parameterNumberName":"V-component_of_CURRENTS"},"data":[0,0,0,0,0,0,0,0,0,0,0,0,0,0,0,0,0,0,0,0,0,0,0,0,0,0,0,0,0,0,0,0,0,0,0,0,0,0,0,0,0,0,0,0,0,0,0,0,0,0,0,0,0,0,0,0,0,0,0.0048,0.0048,0,0.0014,0.0014,0.0013,-0.0019,-0.0019,-0.002,-0.002,-0.0066,-0.0067,-0.0067,0,0,0,0,0,0,0,0,0,0,0,0,0,0.0064,0.0064,0.0048,0.0048,0.0047,0.0014,0.0014,0.0013,-0.0019,-0.0019,-0.002,-0.002,-0.0066,-0.0067,-0.0068,0,0,0,0,0,0,0,0,0,0,0,0,0,0.0047,0.0064,0.0048,0.0027,0.0025,0.0014,0.0014,0.0013,-0.0018,-0.0019,-0.002,-0.002,-0.0065,-0.0066,-0.0068,-0.0062,0,0,-0.0071,-0.0072,0,0,0,0,0,0,0,0,0.0048,0.0046,0.0031,0.0028,0.0026,0.0001,0.0002,-0.0013,-0.0018,-0.0001,-0.002,-0.0021,-0.0045,-0.0047,-0.0051,-0.0064,-0.0066,-0.0071,-0.0072,-0.0073,-0.0073,0,0,0,0,0,0,0,0.0049,0.0047,0.0035,0.003,0.0027,0.0011,0.0008,-0.0001,-0.0019,-0.0003,-0.0006,-0.001,-0.0046,-0.005,-0.0053,-0.0066,-0.0071,-0.0072,-0.0073,-0.0074,-0.0091,-0.0091,0,0,0,0,0,0,0.0054,0.0049,0.0036,0.0034,0.0035,0.0012,0.0008,0.001,-0.0018,-0.0023,-0.0009,-0.0011,-0.0048,-0.0051,-0.0055,-0.0059,-0.0073,-0.0074,-0.0074,-0.0091,-0.0091,-0.0091,0,0,0,0,0,0,0.0055,0.0054,0.0038,0.004,0.0036,0.0012,0.0014,0.001,0.0002,-0.0023,-0.0029,-0.0013,-0.0048,-0.0053,-0.0065,-0.006,-0.0074,-0.0075,-0.0091,-0.0091,-0.0091,-0.006,0,0,0,0,0,0,0.0055,0.0054,0.006,0.004,0.0037,0.0035,0.0015,0.0009,0.0,-0.0003,-0.0027,-0.0032,-0.0049,-0.0063,-0.0066,-0.0062,-0.0076,-0.0092,-0.0091,-0.0091,-0.0062,-0.0059,-0.0057,0,0,0,0,0,0.0056,0.0072,0.006,0.0059,0.0044,0.0036,0.0033,0.0013,0.0001,0.0003,-0.0018,-0.0032,-0.0062,-0.0064,-0.0068,-0.0064,-0.0092,-0.0091,-0.0091,-0.0063,-0.006,-0.0057,0,0,0,0,0,0,0.0092,0.007,0.0056,0.0067,0.0052,0.003,0.0033,0.0016,0.0002,-0.0001,-0.0028,-0.0034,-0.0044,-0.0056,-0.0057,-0.0067,-0.0079,-0.0079,-0.0057,-0.0054,-0.0051,-0.0043,-0.0077,0,0,0,0,0,0.01,0.01,0.0077,0.0086,0.008,0.0056,0.005,0.0035,0.0018,0.0011,-0.0007,-0.0026,-0.0043,-0.005,-0.0064,-0.0067,-0.0088,-0.0067,-0.0065,-0.0062,-0.0058,-0.0091,-0.0091,-0.0089,-0.0089,-0.0089,0,0,0.0117,0.0104,0.0105,0.0092,0.008,0.0076,0.0051,0.0047,0.0042,0.0009,0.0004,-0.0018,-0.0042,-0.0049,-0.0054,-0.0059,-0.0073,-0.0062,-0.006,-0.0057,-0.0091,-0.0091,-0.0091,-0.0088,-0.0088,-0.0088,0,0,0.0143,0.0139,0.0141,0.0131,0.0111,0.0097,0.0096,0.0074,0.0064,0.0055,0.0027,0.0008,-0.0009,-0.003,-0.0043,-0.0033,-0.006,-0.0036,-0.0016,-0.0047,-0.0048,-0.0049,-0.0071,-0.0074,-0.0033,-0.0033,-0.0033,0,0.0163,0.0162,0.0143,0.014,0.0137,0.0108,0.0111,0.0099,0.0075,0.007,0.0058,0.002,-0.0001,-0.0019,-0.0018,-0.0028,-0.0047,-0.0025,-0.0044,-0.0046,-0.0047,-0.007,-0.0074,-0.0032,-0.0032,-0.0032,-0.0032,0,0.0179,0.0183,0.0188,0.0172,0.0168,0.017,0.0148,0.0143,0.0127,0.0109,0.0091,0.0057,0.0035,0.0024,0.0005,-0.0013,-0.0024,-0.0039,-0.0052,-0.0046,-0.007,-0.0075,-0.0029,-0.003,-0.003,-0.0031,0,0,0.0208,0.0201,0.0201,0.0204,0.0186,0.0188,0.0184,0.0173,0.0174,0.0144,0.014,0.0102,0.0081,0.0065,0.0036,0.0007,-0.0021,-0.0016,-0.0018,-0.0038,-0.0086,-0.0084,-0.0089,-0.0042,-0.0043,-0.0043,-0.0098,0,0.0223,0.0237,0.0224,0.024,0.0246,0.0227,0.023,0.0216,0.0201,0.0192,0.0148,0.0135,0.0097,0.0089,0.0052,0.0,-0.0032,-0.0005,-0.009,-0.0092,-0.0091,-0.0094,-0.0045,-0.0101,-0.0102,-0.0103,-0.0104,0,0.023,0.0243,0.0265,0.0278,0.0279,0.0285,0.0289,0.0286,0.0262,0.025,0.022,0.0189,0.0146,0.0113,0.0022,0.0041,-0.0018,-0.0064,-0.0068,-0.0079,-0.0098,-0.0111,-0.0112,-0.0112,-0.0111,-0.011,-0.011,0,0.0251,0.0268,0.0292,0.0295,0.0305,0.0314,0.0317,0.0304,0.0315,0.0287,0.0293,0.0228,0.0207,0.0121,0.0031,0.0025,-0.0072,-0.0092,-0.0149,-0.015,-0.0149,-0.0148,-0.0163,-0.0163,-0.0163,-0.0163,-0.0163,0,0.0263,0.0276,0.0308,0.032,0.0354,0.0348,0.0376,0.0364,0.0367,0.0382,0.0326,0.0322,0.0208,0.0142,0.0046,-0.0059,-0.0062,-0.0145,-0.0165,-0.0134,-0.013,-0.0152,-0.015,-0.0165,-0.0164,-0.0164,-0.0164,0,0.0248,0.0276,0.0304,0.0342,0.0361,0.0378,0.042,0.0438,0.0436,0.0453,0.0451,0.0396,0.0307,0.0192,0.0056,-0.0026,-0.0134,-0.0174,-0.0121,-0.0137,-0.0196,-0.0192,-0.0242,-0.0243,-0.0243,-0.0243,-0.0244,0,0.0227,0.0246,0.0317,0.0349,0.0363,0.0404,0.0435,0.0463,0.0487,0.0496,0.0504,0.0442,0.0385,0.0205,0.0071,-0.0108,-0.0141,-0.0196,-0.0211,-0.0191,-0.0205,-0.02,-0.0196,-0.0244,-0.0244,-0.0244,-0.0244,0,0.0182,0.0218,0.0247,0.0329,0.038,0.0436,0.0484,0.052,0.0549,0.0566,0.0552,0.0464,0.0365,0.0214,0.0078,-0.0056,-0.0159,-0.0201,-0.0201,-0.0215,-0.0193,-0.0206,-0.0202,-0.0246,-0.0245,-0.0245,-0.0245,0,0.0141,0.0158,0.0225,0.0295,0.0363,0.0435,0.0475,0.0518,0.0558,0.0584,0.0579,0.0477,0.0426,0.0241,0.0114,-0.0013,-0.0056,-0.0107,-0.0113,-0.0113,-0.0065,-0.0017,-0.0031,0,0,0,0,0,0.0105,0.0141,0.0189,0.0281,0.0347,0.0403,0.0488,0.0529,0.059,0.0587,0.0589,0.0498,0.0324,0.0252,0.0124,0.0081,-0.0096,-0.0075,-0.0162,-0.0252,-0.0251,-0.0216,0,0,0,0,0,0,0.0087,0.0129,0.0175,0.0254,0.0313,0.0396,0.0458,0.0505,0.0513,0.0552,0.0466,0.0452,0.0282,0.0391,0.0115,0.0078,0.0003,-0.0146,-0.0149,-0.0253,-0.0252,-0.0251,-0.0215,0,0,0,0,0]}]]